Regional Weather Roundup
Issued by NWS New Orleans/Baton Rouge, LA

Home | Current Version | Previous Version | Graphics & Text | Print | Product List | Glossary On
Versions: 1 2 3 4 5 6 7 8 9 10 11 12 13 14 15 16 17 18 19 20 21 22 23 24 25 26 27 28 29 30 31 32 33 34 35 36 37 38 39 40 41 42 43 44 45 46 47 48 49 50
804
ASUS44 KLIX 010310
RWRLIX
NEW ORLEANS REGIONAL WEATHER ROUNDUP
NATIONAL WEATHER SERVICE NEW ORLEANS LA
900 PM CST SAT JAN 31 2015

NOTE: "FAIR" INDICATES FEW OR NO CLOUDS BELOW 12,000 FEET WITH NO
      SIGNIFICANT WEATHER AND/OR OBSTRUCTIONS TO VISIBILITY.
      SKY/WX - SKY CONDITION AND SIGNIFICANT WEATHER.
      TMP - AIR TEMPERATURE.     DP    - DEWPOINT TEMPERATURE.
      RH  - RELATIVE HUMIDITY.   PRES  - PRESSURE.
      HI  - HEAT INDEX.          WCI   - WIND CHILL INDEX.

*  THESE STATIONS ARE NOT NWS OR FAA STATIONS AND ARE NOT UNDER
   NWS QUALITY CONTROL.

LAZ038-040-048-061>063-065>067-069-010400-
SOUTHEAST LOUISIANA

CITY           SKY/WX    TMP DP  RH WIND       PRES   REMARKS
N.O. AUDUBON     N/A     56  53  89 MISG        N/A
N.O. INTL ARPT MOCLDY    57  50  77 E8        30.16S
N.O. LAKEFRONT MOCLDY    58  51  78 E12       30.18R
N.O. DOWNTOWN* NOT AVBL
SLIDELL        CLOUDY    53  48  83 VRB6      30.17F
BATON ROUGE    MOCLDY    54  47  77 E10       30.13F
BOOTHVILLE     PTCLDY    58  52  80 E8        30.17F
BELLE CHASSE   MOCLDY    57  50  77 E7        30.16R
BOGALUSA*        N/A     53  46  76 SE6       30.20S
GALLIANO*      CLOUDY    60  55  83 E5        30.15S
NEW ROADS*     CLOUDY    54  48  79 E7        30.13F
GONZALES*      CLOUDY    55  52  90 E6        30.14F
HAMMOND*       MOCLDY    54  46  76 E3        30.18F
HOUMA*         MOCLDY    55  52  89 E7        30.14F
PORT FOURCHON* CLOUDY    63  57  82 E13G20    30.16F

$$

MSZ070-080>082-010400-
SOUTHERN MISSISSIPPI

CITY           SKY/WX    TMP DP  RH WIND       PRES   REMARKS
MCCOMB         MOCLDY    50  42  74 SE5       30.17S
GULFPORT       PTCLDY    52  45  77 E5        30.19F
BILOXI           N/A     52  46  80 E6        30.19F
PASCAGOULA     MOCLDY    44  42  93 E3        30.20F
STENNIS ARPT*  CLEAR     52  45  76 E5        30.19F

$$

COASTAL OBSERVATIONS
LAKE AND NEARSHORE STATIONS

STATION/POSITION TIME  TEMP    WIND        PRES    WAVE
                       AIR SEA DIR/SP/G            HT/PER
                 (UTC) (F)     (DEG/KT/KT) (MB)    (FT/S)
PASCAGOULA       0300   53      60/  7/ 10 1022.2
WAVELAND YACHT   0300   54      90/  7/  8 1021.3
GRAND ISLE       0300   63 63  110/  9/ 17 1021.2
SOUTHWEST PASS   0300   63 48  110/ 20/ 23 1021.2
NEW CANAL        0300   56 55   90/  3/  8 1021.8
SHELL BEACH      0300           90/ 10/ 11   N/A

OFFSHORE STATIONS

STATION/POSITION TIME  TEMP    WIND        PRES    WAVE
                       AIR SEA DIR/SP/G            HT/PER
                 (UTC) (F)     (DEG/KT/KT) (MB)    (FT/S)
64 S DAUPHIN ISL 0236   63 69  130/ 16/ 19 1022.5    4/ 6

$$




USA.gov is the U.S. government's official web portal to all federal, state and local government web resources and services.